Search your local weather  

 

Hazardous Weather Conditions

No active alerts for NEW YORK, NEW YORK

Current Conditions: NEW YORK, NEW YORK

Fair


39.0 F

Last Updated on Jan 26 2020, 6:51 am EST
Humidity: 76%
Wind Speed: mph
Barometer 29.83 in
Dewpoint: 32.0 F
Visibility: 10.00 mi
Precip: --
Heat Index: NA
Wind Chill: NA
Current conditions at:

New York City, Central Park, NY (KNYC)

Lat: 40.78333 Lon: -73.96667

Local Radar Image active severe weather and emergency alerts image image weather storm and storm spotter reports image weather observation monitoring service image
Local
Radar
Active
Alerts
Storm Reports Weather
Monitoring

5 Day Forecast for NEW YORK, NEW YORK (10001)

Sunday

Partly Sunny

High 47 °F
Sunday
Night
Partly Cloudy

Low 35 °F
Monday

Slight Chance of Rain/Snow Mix
High 46 °F
Monday
Night
Partly Cloudy

Low 33 °F
Tuesday

Partly Sunny

High 41 °F
Tuesday
Night
Partly Cloudy

Low 28 °F
Wednesday

Mostly Sunny

High 41 °F
Wednesday
Night
Partly Cloudy

Low 29 °F
Thursday

Mostly Sunny

High 40 °F

Sign-up For Email & Text Message Weather Alert Notification Services



Advertise Here

Observation History for NEW YORK, NEW YORK


Time Wind
(mph)
Vis
(mi)
Weather Precip (in) Temperature (F) Relative
Humidity
Wind
Chill
(F)
Heat
Index
(F)
Pressure
Air Dwpt altimeter
(in)
sea level
(mb)
6:51 am EST 10.00 Fair -- 39.0 32.0 76% NA NA 29.83 1009.2
5:51 am EST 10.00 Fair -- 39.0 33.1 79% NA NA 29.81 1008.8
4:51 am EST 10.00 A Few Clouds -- 40.0 34.0 79% NA NA 29.81 1008.8
3:51 am EST 10.00 Fair -- 40.0 35.1 83% NA NA 29.81 1008.6
2:51 am EST 10.00 Fair -- 40.0 35.1 83% NA NA 29.81 1008.6
1:51 am EST 10.00 A Few Clouds -- 41.0 36.0 82% NA NA 29.81 1008.6
12:51 am EST 10.00 A Few Clouds -- 41.0 37.0 86% NA NA 29.80 1008.2
11:51 pm EST 10.00 Fair -- 43.0 37.0 80% NA NA 29.80 1008.3
10:51 pm EST 10.00 Fair -- 43.0 37.9 82% NA NA 29.80 1008.4
9:51 pm EST 10.00 A Few Clouds -- 44.0 39.0 83% NA NA 29.79 1008.0
8:51 pm EST 10.00 Mostly Cloudy -- 45.0 39.9 83% NA NA 29.78 1007.7
7:51 pm EST 10.00 Overcast -- 47.0 44.1 90% NA NA 29.77 1007.4
6:51 pm EST 6.00 Fog/Mist -- 50.0 46.9 89% NA NA 29.76 1007.1
5:51 pm EST 7.00 Overcast -- 48.0 46.9 96% NA NA 29.76 1007.1
4:51 pm EST 8.00 Light Rain 00.01 51.0 48.0 89% NA NA 29.75 1006.7
3:51 pm EST 7.00 Light Rain -- 50.0 48.0 93% NA NA 29.77 1007.1
2:51 pm EST 1.00 Rain Fog/Mist -- 50.0 48.0 93% NA NA 29.77 1007.4
1:51 pm EST 2.50 Rain Fog/Mist -- 49.0 48.0 97% NA NA 29.80 1008.4
12:51 pm EST 3.00 Light Rain Fog/Mist 00.16 43.0 42.1 97% NA NA 29.85 1010.0
11:51 am EST 1.75 Rain Fog/Mist 00.03 42.0 39.9 92% NA NA 29.92 1012.5
10:51 am EST 2.00 Light Rain Fog/Mist 00.02 41.0 39.0 93% NA NA 30.01 1015.5
9:51 am EST 1.50 Fog/Mist Trace 40.0 37.9 93% NA NA 30.05 1016.8
8:51 am EST 6.00 Light Rain Fog/Mist Trace 39.0 36.0 89% NA NA 30.11 1018.7
7:51 am EST 7.00 Overcast -- 38.0 35.1 89% NA NA 30.11 1018.9

Regional Weather Observation

New York, La Guardia Airport, NY (KLGA)

Partly Cloudy
39.0 F

Newark, Newark International Airport, NJ (KEWR)

A Few Clouds
34.0 F

New York, Kennedy International Airport, NY (KJFK)

A Few Clouds
36.0 F

Teterboro, Teterboro Airport, NJ (KTEB)

Fair
34.0 F

Caldwell, Essex County Airport, NJ (KCDW)

Mostly Cloudy
36.0 F

Morristown Municipal, NJ (KMMU)

Mostly Cloudy
34.0 F

Advertise Here


Advertise Here